This is the latest recevied weather packets stored in our database for station/object DL8TF-13. If no packets are shown the sender has not sent any weather packets the latest 10 day(s).
| Time | Temp. | Humidity | Pressure | Rain* | Wind** | Luminosity | Snow |
|---|---|---|---|---|---|---|---|
| 1777593206 | 8.89° C | 39% | 994 hPa | - | - | - | - |
| 1777592606 | 9.44° C | 39% | 994 hPa | - | - | - | - |
| 1777592006 | 9.44° C | 38% | 994 hPa | - | - | - | - |
| 1777591406 | 10° C | 34% | 994 hPa | - | - | - | - |
| 1777590806 | 10.56° C | 33% | 994 hPa | - | - | - | - |
| 1777590206 | 10.56° C | 33% | 994 hPa | - | - | - | - |
| 1777589606 | 11.11° C | 31% | 994 hPa | - | - | - | - |
| 1777589006 | 11.67° C | 29% | 994 hPa | - | - | - | - |
| 1777588406 | 12.22° C | 29% | 994 hPa | - | - | - | - |
| 1777587806 | 12.22° C | 27% | 994 hPa | - | - | - | - |
| 1777587205 | 12.22° C | 28% | 994 hPa | - | - | - | - |
| 1777586606 | 11.67° C | 32% | 994 hPa | - | - | - | - |
| 1777586005 | 11.11° C | 35% | 994 hPa | - | - | - | - |
| 1777585405 | 10.56° C | 36% | 994 hPa | - | - | - | - |
| 1777584805 | 11.11° C | 38% | 994 hPa | - | - | - | - |
| 1777584205 | 10.56° C | 38% | 994 hPa | - | - | - | - |
| 1777583605 | 10.56° C | 40% | 994 hPa | - | - | - | - |
| 1777583005 | 11.11° C | 39% | 994 hPa | - | - | - | - |
| 1777582405 | 11.11° C | 40% | 994 hPa | - | - | - | - |
| 1777581805 | 11.11° C | 39% | 994 hPa | - | - | - | - |
| 1777581205 | 11.67° C | 38% | 994 hPa | - | - | - | - |
| 1777580605 | 11.67° C | 37% | 994 hPa | - | - | - | - |
| 1777580005 | 11.67° C | 37% | 994 hPa | - | - | - | - |
| 1777579405 | 12.22° C | 37% | 994 hPa | - | - | - | - |
| 1777578805 | 12.78° C | 35% | 993 hPa | - | - | - | - |
* Rain since midnight (hover to see other rain measurements)
** Current wind speed in m/s (hover to see current wind gust speed)